30.06.2024;15:00;1
30.06.2024;14:00;1
30.06.2024;13:00;1
30.06.2024;12:00;1
30.06.2024;11:00;1
30.06.2024;10:00;1
30.06.2024;09:00;1
30.06.2024;08:00;1
30.06.2024;07:00;2
30.06.2024;06:00;7
30.06.2024;05:00;9
30.06.2024;04:00;14
30.06.2024;03:00;21
30.06.2024;02:00;13
30.06.2024;01:00;11
30.06.2024;00:00;14
29.06.2024;23:00;22
29.06.2024;22:00;25
29.06.2024;21:00;21
29.06.2024;20:00;17
29.06.2024;19:00;20
29.06.2024;18:00;25
29.06.2024;17:00;22
29.06.2024;16:00;28
29.06.2024;15:00;32
29.06.2024;14:00;34
29.06.2024;13:00;32
29.06.2024;12:00;33
29.06.2024;11:00;29
29.06.2024;10:00;20
29.06.2024;09:00;23
29.06.2024;08:00;31
29.06.2024;07:00;31
29.06.2024;06:00;19
29.06.2024;05:00;15
29.06.2024;04:00;19
29.06.2024;03:00;12
29.06.2024;02:00;6
29.06.2024;01:00;11
29.06.2024;00:00;13
28.06.2024;23:00;12
28.06.2024;22:00;15
28.06.2024;21:00;17
28.06.2024;20:00;21
28.06.2024;19:00;24
28.06.2024;18:00;21
28.06.2024;17:00;15
28.06.2024;16:00;20
